Location: Trenton
(45.6167°N, 62.6167°W)
Time: 09:49:01
(UTC+00:00)

Nauka - Pass Details

Date: 28 September 2021
Orbit: 418 x 423 km, 51.6° (Epoch: 18 October)

Event Time Altitude Azimuth Distance (km) Brightness Sun altitude
Rises 00:24:51 0° 298° (WNW) 2,368 ? -25.8°
Reaches altitude 10° 00:26:58 10° 303° (WNW) 1,503 ? -26.1°
Enters shadow 00:28:37 26° 314° (NW) 879 ? -26.4°
